www.pogodaiklimat.ru

Погода и климат >> Архив погоды >> Албания >> Кучова


ПОГОДА в Кучове

  • Прогноз погоды в Кучове
  • Монитор погоды в Кучове

АРХИВ ПОГОДЫ в Кучове

Время (UTC), дата Ветер
(напр.,м/с)
 
Видим.   Явления Облачность Т
(С)
Тd
(С)
f
(%)
Тe
(С)
Тes
(С)
Комфортность P
(гПа)
Po
(гПа)
Тmin
(С)
Tmax
(С)
R
(мм)
R24
(мм)
S
(см)
21 10.06 штиль 0 10 км {гроза} 5/0
[Ac trans]
+20.6 +17.8 84 +24 +24 комфорт 1009.9 1006.2
00 11.06 ЮВ 6 10 км ясно +20.6 +17.8 84 +24 +24 комфорт 1010.0 1006.3
03 11.06 штиль 0 15 км ясно +17.0 +15.0 88 +17 +17 1010.1 1006.3
06 11.06 ЮВ 6 20 км 4/0
[Ac trans]
+20.4 +15.0 71 +23 +24 комфорт 1010.1 1006.3 +16.6 3
09 11.06 ЮВ 2 20 км 1/0
[Ac trans]
+28.6 +15.5 45 +31 +48 жарко 1009.7 1006.0
12 11.06 штиль 0 20 км 3/1 1200 м
[Cu hum Ci fib]
+32.0 +15.5 37 +34 +56 опасность
солнечного
удара
1009.6 1006.0
15 11.06 СВ 6 20 км 1/0
[Ac trans]
+31.6 +15.5 38 +34 +37 душно 1009.1 1005.5
18 11.06 штиль 0 20 км 3/0
[Ac trans]
+29.8 +17.9 49 +34 +34 очень
душно
1009.1 1005.4 +32.2
21 11.06 штиль 0 10 км ясно +21.8 +19.2 85 +27 +27 душно 1011.2 1007.5
00 12.06 ЮВ 2 10 км ясно +19.8 +17.5 87 +23 +23 комфорт 1011.2 1007.5
03 12.06 ЮВ 4 10 км ясно +19.4 +15.6 79 +21 +21 комфорт 1011.1 1007.3
06 12.06 штиль 0 20 км ясно +22.0 +17.5 76 +27 +34 душно 1012.0 1008.2 +19.4
09 12.06 штиль 0 20 км ясно +29.0 +18.8 54 +34 +58 опасность
солнечного
удара
1012.4 1008.8
12 12.06 штиль 0 20 км ясно +31.8 +14.9 36 +34 +59 опасность
солнечного
удара
1012.2 1008.6
15 12.06 З 4 20 км ясно +33.2 +18.2 41 +38 +42 очень
душно
1012.0 1008.4
18 12.06 З 2 20 км ясно +30.0 +19.7 54 +36 +36 очень
душно
1012.0 1008.4 +34.0
21 12.06 штиль 0 10 км ясно +21.0 +18.8 87 +25 +25 комфорт 1012.7 1008.9
00 13.06 ЮВ 4 10 км 3/0
[As op]
+21.6 +19.3 87 +27 +27 душно 1012.7 1009.0
03 13.06 ЮВ 4 15 км 1/0
[Ac trans]
+17.6 +15.0 85 +17 +17 1012.7 1008.9
06 13.06 ЮВ 6 20 км ясно +21.4 +14.4 64 +24 +26 комфорт 1012.9 1009.1 +17.2
09 13.06 ЮВ 2 20 км ясно +29.2 +16.8 47 +33 +50 очень
душно
1014.1 1010.5
12 13.06 штиль 0 20 км ясно +34.6 +15.5 32 +37 +62 опасность
солнечного
удара
1013.5 1010.0
15 13.06 СЗ 4 20 км ясно +33.6 +14.6 32 +35 +40 душно 1013.6 1010.0
18 13.06 СЗ 2 20 км ясно +30.0 +14.5 39 +32 +32 жарко 1014.3 1010.7 +35.2
21 13.06 штиль 0 10 км ясно +19.8 +17.0 84 +22 +22 комфорт 1015.5 1011.7
00 14.06 ЮВ 4 10 км ясно +19.0 +16.8 87 +20 +20 1015.6 1011.8
03 14.06 ЮВ 4 10 км ясно +14.8 +12.0 83 +14 +14 1015.4 1011.6
06 14.06 ЮВ 2 20 км ясно +19.6 +14.9 74 +22 +28 комфорт 1015.3 1011.6 +14.8
09 14.06 штиль 0 20 км ясно +27.2 +17.0 54 +31 +55 опасность
солнечного
удара
1015.2 1011.5
12 14.06 З 2 20 км ясно +32.6 +17.7 41 +37 +55 опасность
солнечного
удара
1015.1 1011.5
15 14.06 С 2 20 км ясно +33.6 +15.6 34 +36 +43 очень
душно
1014.6 1011.0
18 14.06 штиль 0 20 км 3/0
[Ac trans]
+29.0 +16.9 48 +33 +33 очень
душно
1015.0 1011.3 +34.0
21 14.06 штиль 0 10 км ясно +20.0 +18.2 89 +23 +23 комфорт 1014.2 1010.4
03 15.06 ЮВ 4 15 км ясно +17.4 +15.9 91 +17 +17 1013.5 1009.7
06 15.06 штиль 0 20 км ясно +22.0 +18.1 79 +27 +34 душно 1013.1 1009.4 +17.4
09 15.06 штиль 0 20 км ясно +30.2 +19.6 53 +36 +60 опасность
солнечного
удара
1012.5 1008.9
12 15.06 З 4 20 км 1/1 1200 м
[Cu med, cong]
+35.0 +16.8 34 +38 +49 очень
душно
1011.4 1007.8
15 15.06 ЮЗ 8 20 км 3/1 1200 м
[Cu med, cong Ci fib]
+33.0 +21.9 52 +41 +43 опасность
перегрева
1010.6 1007.0
18 15.06 З 4 20 км 5/1 1200 м
[Cu med, cong Ac As]
+29.8 +22.0 63 +38 +38 очень
душно
1010.6 1006.9 +37.0
21 15.06 штиль 0 10 км ясно +24.0 +21.5 86 +31 +31 очень
душно
1010.8 1007.1
00 16.06 ЮВ 2 10 км ясно +22.0 +19.7 87 +28 +28 душно 1011.0 1007.3
03 16.06 ЮВ 2 10 км ясно +21.0 +19.3 90 +26 +26 душно 1010.9 1007.2
06 16.06 штиль 0 20 км ясно +23.0 +18.9 78 +29 +37 очень
душно
1011.3 1007.6 +20.2
09 16.06 штиль 0 20 км ясно +30.6 +17.7 46 +35 +58 опасность
солнечного
удара
1010.6 1007.0
12 16.06 СЗ 2 20 км 3/3 1200 м
[Cu med, cong]
+33.0 +20.2 47 +39 +52 опасность
солнечного
удара
1010.4 1006.8
15 16.06 З 8 15 км 4/4 1080 м
[Cu med, cong]
+32.0 +19.3 47 +38 +38 очень
душно
1010.5 1006.9
18 16.06 З 2 15 км 9/0
[As trans]
+29.0 +18.8 54 +34 +34 очень
душно
1010.6 1006.9 +33.6
21 16.06 штиль 0 10 км 10/0
[As trans]
+25.0 +22.6 87 +33 +33 очень
душно
1010.6 1006.9
00 17.06 штиль 0 10 км 10/0
[As trans]
+24.0 +22.2 90 +31 +31 очень
душно
1010.7 1007.0
03 17.06 штиль 0 15 км 4/0
[As trans]
+20.0 +17.4 85 +23 +23 комфорт 1010.8 1007.1
06 17.06 ЮВ 4 20 км 5/0
[Ac trans Ci fib]
+22.4 +16.0 67 +27 +29 душно 1011.4 1007.7 +19.0
09 17.06 штиль 0 20 км 1/0
[Ac trans]
+28.6 +13.7 40 +30 +53 опасность
солнечного
удара
1012.0 1008.3
12 17.06 СЗ 2 20 км 3/1 1380 м
[Cu hum Ac trans]
+32.2 +15.3 36 +34 +49 душно 1011.2 1007.6
15 17.06 СЗ 4 20 км 10/10 1200 м
[Sc]
+33.0 +19.8 46 +39 +39 очень
душно
1010.4 1006.8
18 17.06 СВ 8 12 км дождь 10/10 900 м
[Sc]
+21.6 +19.6 88 +27 +27 душно 1011.1 1007.3 +33.2 5

 

Местоположение метеостанции Кучова (Албания): широта 40.80 долгота 19.90 высота над уровнем моря 32 м.

В архиве по умолчанию представлена погода в Кучове за последнюю неделю. Архивные данные за месяц целиком и за предыдущие месяцы, начиная с января 2011 года, Вы можете получить, выбрав интересующий диапазон дат из раскрывающегося списка и нажав кнопку "Ввод!".


*Определитесь, кто Вы:
робот инопланетянин человек

Внимание! Время в таблицах - всемирное. Для получения местного времени необходимо прибавить поправку, которая равна 1 ч.

Смотрите также архив погоды в соседних городах и на ближайших метеорологических станциях:

Погода в Эльбасане (Албания) (46 км)
Погода во Влёре (Албания) (51 км)
Погода в Тиране (Албания) (60 км)
Погода на Сазани (Албания) (62 км)
Погода в Дурресе (Албания) (67 км)
Погода в Корке (Албания) (77 км)
Погода в Гирокастре (Албания) (83 км)
Погода в Охрид аэропорту (Македония) (84 км)
Погода в Охриде (Македония) (84 км)
Погода в Тиране Лапрака (Албания) (91 км)

Пояснения к столбцам:

Ветер - указаны скорость ветра в м/с - средняя за 10 мин, порывы в срок и между сроками (в фигурных скобках) и направление, откуда дует ветер: С - северный, СВ - северо-восточный, В - восточный, ЮВ - юго-восточный, Ю - южный, ЮЗ - юго-западный, З - западный, СЗ - северо-западный.
Видимость - горизонтальная дальность видимости в метрах или километрах. При видимости от 1 до 10 км при отсутствии осадков обычно наблюдается дымка, при ухудшении видимости до 1 км и менее - туман. В сухую погоду видимость может ухудшаться дымом, пылью или мглою.
Явления - указаны атмосферные явления, наблюдавшиеся в срок или в последний час перед сроком; фигурными скобками обозначены явления, наблюдавшиеся между сроками (за 1-3 часа до срока); квадратными скобками обозначены град или гололедные отложения с указанием их диаметра в мм.
Облачность - указаны через наклонную черту общая и нижняя облачность в баллах и высота нижней границы облаков в метрах; квадратными скобками обозначены формы облаков: Ci - перистые, Cs - перисто-слоистые, Cc - перисто-кучевые, Ac - высококучевые, As - высокослоистые, Sc - слоисто-кучевые, Ns - слоисто-дождевые, Cu - кучевые, Cb - кучево-дождевые. Подробнее классификацию облаков см. в Атласе облаков (PDF).
T - Температура воздуха - температура, измеренная на высоте 2 м над землей.
Td - Температура точки росы - температура, при понижении до которой содержащийся в воздухе водяной пар достигнет насыщения.
f - Относительная влажность воздуха - влажноcть воздуха, измеренная на высоте 2 м над землей.
Te - Эффективная температура - температура, которую ощущает одетый по сезону человек в тени. Характеристика душности погоды. При расчете учитывается влияние влажности воздуха и скорости ветра на теплоощущения человека.
Tes - Эффективная температура на солнце - температура, которую ощущает человек, с поправкой на солнечный нагрев. Характеристика знойности погоды. Зависит от высоты солнца над горизонтом, облачности и скорости ветра. Ночью, в пасмурную погоду, а также при ветре 12 м/с и более поправка равна нулю.
P - Атмосферное давление - приведенное к уровню моря атмосферное давление.
Po - Атмосферное давление - измеренное на уровне метеостанции атмосферное давление.
Tmin - Минимальная температура - минимум температуры воздуха на высоте 2 м над землей.
Tmax - Максимальная температура - максимум температуры воздуха на высоте 2 м над землей.
R - Количество осадков - Количество выпавших осадков за период времени, мм. При наведении курсора мыши на число - период времени, за который выпало указанное количество осадков.
R24 - Количество осадков - Количество выпавших осадков за 24 часа, мм.
S - Снежный покров - Высота снежного покрова, см. При наведении курсора мыши на число - состояние снежного покрова и степень покрытия местности в баллах.